Change the Weather History Date:

Wednesday, June 4, 2014

  Actual Average Record
Temperature  
Mean Temperature 80 °F -  
Max Temperature 92 °F 80 °F 104 °F (2008)
Min Temperature 69 °F 54 °F 47 °F (1970)
Cooling Degree Days 16    
Growing Degree Days 30 (Base 50)    
Moisture  
Dew Point 60 °F    
Average Humidity 47    
Maximum Humidity 68    
Minimum Humidity 31    
Precipitation  
Precipitation 0.00 in - - ()
Sea Level Pressure  
Sea Level Pressure 29.80 in    
Wind  
Wind Speed 12 mph (ENE)    
Max Wind Speed 22 mph    
Max Gust Speed 26 mph    
Visibility 10 miles    
Events      
Averages and records for this station are not official NWS values.
T = Trace of Precipitation, MM = Missing Value Source: NWS Daily Summary

Daily Weather History Graph

Daily Weather History Graph

Search for Another Location

Airport or City:

Trip Planner

Search our weather history database for the weather conditions in past years. The results will help you decide how hot, cold, wet, or windy it might be!

Date:

Astronomy

Jun. 04, 2014 Rise Set
Actual Time 6:25 AM CDT 8:57 PM CDT
Civil Twilight 5:55 AM CDT 9:27 PM CDT
Nautical Twilight 5:18 AM CDT 10:04 PM CDT
Astronomical Twilight 4:37 AM CDT 10:46 PM CDT
Moon 12:39 PM CDT 1:04 AM CDT
Length of Visible Light 15h 31m
Length of Day
14h 31m
Waxing Crescent, 39% of the Moon is Illuminated
Jun 4
Waxing Crescent
Jun 5
First Quarter
Jun 12
Full
Jun 19
Last Quarter
Jun 27
New

Hourly Weather History & Observations

Time (CDT) Temp. Heat Index Dew Point Humidity Pressure Visibility Wind Dir Wind Speed Gust Speed Precip Events Conditions
12:15 AM 80.6 °F 81.1 °F 59.0 °F 48% 29.80 in 10.0 mi SSW 19.6 mph 23.0 mph N/A   Clear
12:35 AM 80.4 °F 80.9 °F 58.6 °F 47% 29.79 in 10.0 mi South 18.4 mph 24.2 mph N/A   Clear
12:55 AM 80.8 °F 81.2 °F 58.6 °F 47% 29.79 in 10.0 mi South 20.7 mph 25.3 mph N/A   Clear
1:15 AM 80.6 °F 81.1 °F 59.0 °F 48% 29.78 in 10.0 mi South 18.4 mph 26.5 mph N/A   Clear
1:35 AM 79.7 °F - 59.0 °F 49% 29.76 in 10.0 mi South 21.9 mph - N/A   Clear
1:55 AM 79.2 °F - 59.4 °F 51% 29.76 in 10.0 mi South 17.3 mph 23.0 mph N/A   Clear
2:15 AM 78.4 °F - 59.5 °F 52% 29.74 in 10.0 mi South 16.1 mph 21.9 mph N/A   Clear
2:35 AM 78.1 °F - 59.5 °F 53% 29.75 in 10.0 mi South 13.8 mph - N/A   Clear
2:55 AM 77.2 °F - 59.9 °F 55% 29.76 in 10.0 mi SSW 11.5 mph - N/A   Clear
3:15 AM 76.5 °F - 59.2 °F 55% 29.76 in 10.0 mi SW 11.5 mph - N/A   Clear
3:35 AM 76.5 °F - 57.7 °F 52% 29.79 in 10.0 mi WSW 11.5 mph - N/A   Clear
4:15 AM 73.9 °F - 58.1 °F 58% 29.78 in 10.0 mi WSW 12.7 mph - N/A   Clear
4:35 AM 76.3 °F - 57.6 °F 52% 29.79 in 10.0 mi WSW 11.5 mph - N/A   Clear
4:55 AM 75.7 °F - 58.1 °F 54% 29.79 in 10.0 mi WSW 10.4 mph - N/A   Clear
5:15 AM 74.3 °F - 58.1 °F 57% 29.78 in 10.0 mi WSW 10.4 mph - N/A   Clear
5:35 AM 74.3 °F - 58.1 °F 57% 29.78 in 10.0 mi SW 9.2 mph - N/A   Clear
5:55 AM 72.5 °F - 58.3 °F 61% 29.78 in 10.0 mi SSW 9.2 mph - N/A   Clear
6:15 AM 70.3 °F - 58.1 °F 65% 29.78 in 10.0 mi SSW 8.1 mph - N/A   Clear
6:35 AM 69.4 °F - 58.3 °F 68% 29.78 in 10.0 mi SSW 6.9 mph - N/A   Clear
6:55 AM 69.4 °F - 58.6 °F 68% 29.80 in 10.0 mi NW 4.6 mph - N/A   Clear
7:15 AM 70.9 °F - 59.4 °F 67% 29.80 in 10.0 mi NW 3.5 mph - N/A   Clear
7:35 AM 73.2 °F - 59.9 °F 63% 29.80 in 10.0 mi Calm Calm - N/A   Clear
7:55 AM 75.2 °F - 59.7 °F 58% 29.80 in 10.0 mi West 3.5 mph - N/A   Clear
8:15 AM 76.6 °F - 59.4 °F 55% 29.81 in 10.0 mi WNW 3.5 mph - N/A   Clear
8:35 AM 78.6 °F - 59.2 °F 51% 29.81 in 10.0 mi NW 8.1 mph - N/A   Clear
8:55 AM 80.4 °F 81.0 °F 59.2 °F 48% 29.81 in 10.0 mi WNW 8.1 mph - N/A   Clear
9:15 AM 80.8 °F 81.2 °F 59.0 °F 47% 29.81 in 10.0 mi NW 8.1 mph - N/A   Clear
9:35 AM 81.9 °F 81.9 °F 58.8 °F 45% 29.82 in 10.0 mi NW 8.1 mph - N/A   Clear
9:55 AM 81.7 °F 81.9 °F 59.0 °F 46% 29.82 in 10.0 mi NNW 9.2 mph - N/A   Clear
10:15 AM 81.1 °F 81.5 °F 59.0 °F 47% 29.82 in 10.0 mi North 8.1 mph - N/A   Clear
10:35 AM 82.6 °F 82.5 °F 58.6 °F 44% 29.83 in 10.0 mi North 9.2 mph 17.3 mph N/A   Clear
10:55 AM 82.8 °F 82.5 °F 58.5 °F 43% 29.83 in 10.0 mi North 12.7 mph 19.6 mph N/A   Clear
11:15 AM 82.8 °F 82.8 °F 59.4 °F 45% 29.84 in 10.0 mi North 13.8 mph - N/A   Clear
11:35 AM 81.1 °F 81.5 °F 59.4 °F 47% 29.85 in 10.0 mi North 10.4 mph - N/A   Clear
11:55 AM 82.4 °F 82.7 °F 60.4 °F 47% 29.85 in 10.0 mi North 10.4 mph - N/A   Clear
12:15 PM 82.6 °F 82.9 °F 60.6 °F 47% 29.85 in 10.0 mi NNE 13.8 mph 17.3 mph N/A   Clear
12:35 PM 83.5 °F 83.7 °F 60.8 °F 46% 29.85 in 10.0 mi NE 15.0 mph 19.6 mph N/A   Clear
12:55 PM 84.9 °F 85.0 °F 60.4 °F 44% 29.85 in 10.0 mi NE 15.0 mph 20.7 mph N/A   Clear
1:15 PM 86.5 °F 86.5 °F 61.0 °F 42% 29.85 in 10.0 mi NNE 12.7 mph - N/A   Clear
1:35 PM 87.3 °F 87.0 °F 60.4 °F 40% 29.84 in 10.0 mi NNE 12.7 mph 20.7 mph N/A   Clear
1:55 PM 88.7 °F 88.6 °F 60.8 °F 39% 29.84 in 10.0 mi NE 13.8 mph 19.6 mph N/A   Clear
2:15 PM 88.7 °F 88.6 °F 61.0 °F 39% 29.84 in 10.0 mi NE 15.0 mph 19.6 mph N/A   Clear
2:35 PM 87.8 °F 87.6 °F 61.0 °F 40% 29.83 in 10.0 mi NE 13.8 mph 20.7 mph N/A   Clear
2:55 PM 88.5 °F 88.6 °F 61.3 °F 40% 29.83 in 10.0 mi ENE 10.4 mph 23.0 mph N/A   Clear
3:35 PM 89.1 °F 89.6 °F 62.4 °F 41% 29.83 in 10.0 mi NE 10.4 mph 19.6 mph N/A   Clear
4:15 PM 90.7 °F 90.1 °F 59.5 °F 35% 29.81 in 10.0 mi East 11.5 mph 16.1 mph N/A   Clear
4:35 PM 91.2 °F 90.5 °F 59.4 °F 34% 29.81 in 10.0 mi ENE 10.4 mph - N/A   Clear
4:55 PM 91.2 °F 90.2 °F 58.6 °F 33% 29.80 in 10.0 mi East 6.9 mph - N/A   Clear
5:15 PM 92.3 °F 91.3 °F 58.8 °F 32% 29.80 in 10.0 mi East 10.4 mph - N/A   Clear
5:35 PM 91.8 °F 90.9 °F 58.8 °F 33% 29.79 in 10.0 mi NE 5.8 mph - N/A   Clear
5:55 PM 91.8 °F 90.9 °F 58.5 °F 33% 29.79 in 10.0 mi East 9.2 mph - N/A   Clear
6:15 PM 92.3 °F 91.0 °F 57.7 °F 31% 29.78 in 10.0 mi East 5.8 mph - N/A   Clear
6:35 PM 92.1 °F 91.1 °F 58.1 °F 32% 29.78 in 10.0 mi NE 6.9 mph - N/A   Clear
6:55 PM 92.7 °F 91.5 °F 57.6 °F 31% 29.78 in 10.0 mi ENE 5.8 mph - N/A   Clear
7:15 PM 92.3 °F 91.0 °F 57.4 °F 31% 29.78 in 10.0 mi East 5.8 mph - N/A   Clear
7:35 PM 91.8 °F 90.6 °F 57.6 °F 32% 29.78 in 10.0 mi East 4.6 mph - N/A   Clear
7:55 PM 90.7 °F 90.1 °F 59.7 °F 35% 29.78 in 10.0 mi ENE 8.1 mph - N/A   Clear
8:15 PM 89.8 °F 89.4 °F 60.3 °F 37% 29.78 in 10.0 mi ENE 6.9 mph - N/A   Clear
8:35 PM 87.6 °F 87.4 °F 60.8 °F 40% 29.78 in 10.0 mi East 6.9 mph - N/A   Clear
8:55 PM 86.0 °F 85.9 °F 60.4 °F 42% 29.76 in 10.0 mi East 8.1 mph - N/A   Clear
9:15 PM 84.0 °F 84.2 °F 60.8 °F 45% 29.76 in 10.0 mi East 8.1 mph - N/A   Clear
9:35 PM 82.0 °F 82.7 °F 61.3 °F 49% 29.76 in 10.0 mi East 6.9 mph - N/A   Clear
9:55 PM 81.1 °F 82.0 °F 61.5 °F 51% 29.76 in 10.0 mi East 6.9 mph - N/A   Clear
10:15 PM 81.3 °F 82.1 °F 61.0 °F 50% 29.76 in 10.0 mi East 8.1 mph - N/A   Clear
10:35 PM 80.4 °F 81.4 °F 61.2 °F 52% 29.76 in 10.0 mi East 8.1 mph - N/A   Clear
10:55 PM 79.9 °F - 62.4 °F 55% 29.76 in 10.0 mi East 8.1 mph - N/A   Clear
11:15 PM 78.8 °F - 62.8 °F 58% 29.76 in 10.0 mi East 8.1 mph - N/A   Clear
11:35 PM 77.9 °F - 63.5 °F 61% 29.76 in 10.0 mi East 9.2 mph - N/A   Clear
11:55 PM 79.0 °F - 63.5 °F 59% 29.74 in 10.0 mi ESE 11.5 mph - N/A   Clear